GW1293 Weather Reports


time (UTC)temp
C
wind
direction
speed
KPH
gust
KPH
rain 1hr
cm
rain 24hr
cm
rain mn
cm
humidity
%
barometer
mb
20260510231048 16 85 3.2 4.8 0.00 0.00 0.00 52 1020.7
20260510230543 16 140 0.0 0.0 0.00 0.00 0.00 53 1020.5
20260510230040 16 130 0.0 0.0 0.00 0.00 0.00 52 1020.5
20260510225537 16 123 0.0 0.0 0.00 0.00 0.00 51 1020.8
20260510225033 16 150 1.6 1.6 0.00 0.00 0.00 51 1020.7
20260510224529 16 168 0.0 0.0 0.00 0.00 0.00 51 1020.4
20260510224025 16 149 3.2 3.2 0.00 0.00 0.00 50 1020.6
20260510223524 17 231 4.8 4.8 0.00 0.00 0.00 50 1020.4
20260510223021 17 130 0.0 1.6 0.00 0.00 0.00 47 1020.5
20260510222518 17 155 0.0 0.0 0.00 0.00 0.00 48 1020.6
20260510222014 17 169 0.0 0.0 0.00 0.00 0.00 48 1020.5
20260510221510 16 109 0.0 0.0 0.00 0.00 0.00 49 1020.6
20260510221006 16 144 0.0 0.0 0.00 0.00 0.00 50 1020.5
20260510220502 16 213 3.2 4.8 0.00 0.00 0.00 48 1020.5
20260510215958 16 141 0.0 0.0 0.00 0.00 0.00 51 1020.4
20260510215456 16 138 0.0 0.0 0.00 0.00 0.00 49 1020.3
20260510214954 17 140 0.0 0.0 0.00 0.00 0.00 48 1020.1
20260510214450 17 179 3.2 3.2 0.00 0.00 0.00 47 1020.2
20260510213947 17 144 1.6 1.6 0.00 0.00 0.00 47 1020.1
20260510213443 18 320 4.8 4.8 0.00 0.00 0.00 44 1020.1
20260510212934 18 181 4.8 4.8 0.00 0.00 0.00 46 1019.6
20260510212431 18 78 0.0 1.6 0.00 0.00 0.00 45 1019.7
20260510211927 18 159 0.0 0.0 0.00 0.00 0.00 49 1019.8
20260510211425 19 126 1.6 4.8 0.00 0.00 0.00 45 1019.6
20260510210919 19 142 1.6 1.6 0.00 0.00 0.00 46 1019.7
20260510210415 18 136 1.6 4.8 0.00 0.00 0.00 44 1019.9
20260510205914 18 132 0.0 0.0 0.00 0.00 0.00 47 1019.9
20260510205409 18 148 1.6 1.6 0.00 0.00 0.00 47 1019.8
20260510204906 18 152 0.0 1.6 0.00 0.00 0.00 48 1019.8
20260510204402 18 142 3.2 4.8 0.00 0.00 0.00 44 1019.7
20260510203859 19 130 1.6 1.6 0.00 0.00 0.00 47 1019.9
20260510203356 18 149 1.6 1.6 0.00 0.00 0.00 44 1019.7
20260510202851 19 118 4.8 8.0 0.00 0.00 0.00 46 1019.7
20260510202347 20 233 3.2 3.2 0.00 0.00 0.00 47 1019.8
20260510201843 19 203 1.6 1.6 0.00 0.00 0.00 46 1019.8
20260510201341 19 144 1.6 1.6 0.00 0.00 0.00 46 1019.9
20260510200837 19 221 4.8 4.8 0.00 0.00 0.00 44 1019.9
20260510200336 19 146 1.6 3.2 0.00 0.00 0.00 47 1020.1
20260510195831 19 136 3.2 4.8 0.00 0.00 0.00 44 1019.8
20260510195328 19 170 0.0 0.0 0.00 0.00 0.00 49 1020.1
20260510194823 19 144 1.6 3.2 0.00 0.00 0.00 45 1020.2
20260510194320 19 223 4.8 4.8 0.00 0.00 0.00 46 1020.2
20260510193815 19 149 0.0 1.6 0.00 0.00 0.00 43 1020.1
20260510193310 19 156 0.0 0.0 0.00 0.00 0.00 46 1020.1
20260510192806 19 299 6.4 9.7 0.00 0.00 0.00 45 1019.8
20260510192301 19 185 1.6 3.2 0.00 0.00 0.00 47 1019.9
20260510191758 19 154 3.2 3.2 0.00 0.00 0.00 46 1020.2
20260510191254 18 154 0.0 1.6 0.00 0.00 0.00 48 1020.1
20260510190752 18 196 1.6 3.2 0.00 0.00 0.00 46 1020.1
20260510190248 18 115 1.6 3.2 0.00 0.00 0.00 46 1020.1
20260510185745 20 138 1.6 1.6 0.00 0.00 0.00 44 1019.8
20260510185244 20 109 1.6 3.2 0.00 0.00 0.00 45 1019.7
20260510184740 18 153 0.0 1.6 0.00 0.00 0.00 46 1020.0
20260510184237 18 304 4.8 4.8 0.00 0.00 0.00 44 1019.9
20260510183731 19 36 6.4 8.0 0.00 0.00 0.00 46 1019.8
20260510183226 18 159 4.8 4.8 0.00 0.00 0.00 47 1020.1
20260510182723 19 357 6.4 12.9 0.00 0.00 0.00 46 1020.0
20260510182219 19 170 4.8 4.8 0.00 0.00 0.00 47 1019.8
20260510181716 18 206 4.8 4.8 0.00 0.00 0.00 51 1019.7
20260510181213 18 160 0.0 0.0 0.00 0.00 0.00 47 1019.8
20260510180709 18 296 6.4 8.0 0.00 0.00 0.00 47 1019.9
20260510180207 18 186 6.4 8.0 0.00 0.00 0.00 48 1019.9
20260510175702 18 340 1.6 8.0 0.00 0.00 0.00 52 1019.9
20260510175158 18 176 6.4 11.3 0.00 0.00 0.00 46 1019.6
20260510174655 18 154 1.6 1.6 0.00 0.00 0.00 49 1019.6
20260510174153 18 152 4.8 4.8 0.00 0.00 0.00 45 1019.5
20260510173649 18 136 3.2 4.8 0.00 0.00 0.00 48 1019.4
20260510173145 18 140 0.0 1.6 0.00 0.00 0.00 51 1019.4
20260510172640 18 149 1.6 3.2 0.00 0.00 0.00 48 1019.6
20260510172137 18 125 0.0 0.0 0.00 0.00 0.00 50 1019.8
20260510171634 18 275 4.8 9.7 0.00 0.00 0.00 47 1019.7
20260510171132 18 246 4.8 8.0 0.00 0.00 0.00 45 1019.5
20260510170628 18 171 1.6 3.2 0.00 0.00 0.00 49 1019.5
20260510170124 18 164 4.8 4.8 0.00 0.00 0.00 45 1019.6
20260510165620 18 141 3.2 3.2 0.00 0.00 0.00 46 1019.7
20260510165116 17 277 4.8 8.0 0.00 0.00 0.00 44 1019.6
20260510164614 18 145 1.6 3.2 0.00 0.00 0.00 45 1019.7
20260510164110 18 266 4.8 8.0 0.00 0.00 0.00 44 1019.8
20260510163605 18 314 6.4 8.0 0.00 0.00 0.00 44 1020.0
20260510163102 18 143 3.2 8.0 0.00 0.00 0.00 49 1019.7
20260510162556 18 130 1.6 1.6 0.00 0.00 0.00 49 1019.8
20260510162053 17 126 3.2 3.2 0.00 0.00 0.00 43 1019.6
20260510161549 17 266 3.2 4.8 0.00 0.00 0.00 45 1019.7
20260510161046 17 257 4.8 4.8 0.00 0.00 0.00 47 1019.8
20260510160543 17 142 3.2 4.8 0.00 0.00 0.00 45 1019.7
20260510160042 17 340 4.8 8.0 0.00 0.00 0.00 47 1019.8
20260510155539 17 243 8.0 9.7 0.00 0.00 0.00 46 1019.7
20260510155036 17 129 3.2 3.2 0.00 0.00 0.00 45 1019.7
20260510154531 17 134 1.6 1.6 0.00 0.00 0.00 47 1019.6
20260510154027 17 141 0.0 0.0 0.00 0.00 0.00 52 1019.6
20260510153522 16 147 1.6 1.6 0.00 0.00 0.00 53 1019.5
20260510153019 17 238 6.4 9.7 0.00 0.00 0.00 51 1019.3
20260510152516 17 128 3.2 4.8 0.00 0.00 0.00 51 1019.3
20260510152012 17 82 3.2 4.8 0.00 0.00 0.00 52 1019.1
20260510151509 17 91 1.6 3.2 0.00 0.00 0.00 51 1019.1
20260510151007 17 54 3.2 3.2 0.00 0.00 0.00 52 1019.3
20260510150501 16 154 0.0 1.6 0.00 0.00 0.00 52 1018.9
20260510145957 16 156 3.2 3.2 0.00 0.00 0.00 53 1019.1
20260510145454 16 24 6.4 9.7 0.00 0.00 0.00 53 1019.0
20260510144951 16 300 6.4 8.0 0.00 0.00 0.00 51 1018.8
20260510144448 16 225 4.8 4.8 0.00 0.00 0.00 55 1019.2
20260510143943 16 155 1.6 3.2 0.00 0.00 0.00 54 1018.8
20260510143438 16 144 1.6 3.2 0.00 0.00 0.00 56 1018.4
20260510142936 16 134 1.6 3.2 0.00 0.00 0.00 52 1018.3
20260510142427 16 128 3.2 4.8 0.00 0.00 0.00 53 1018.3
20260510141924 17 128 3.2 4.8 0.00 0.00 0.00 53 1018.3
20260510141420 16 148 1.6 3.2 0.00 0.00 0.00 53 1018.6
20260510140918 16 145 0.0 0.0 0.00 0.00 0.00 58 1018.1
20260510140413 15 94 3.2 3.2 0.00 0.00 0.00 54 1018.2
20260510135907 15 142 1.6 3.2 0.00 0.00 0.00 54 1018.2
20260510135404 15 114 1.6 3.2 0.00 0.00 0.00 53 1018.3
20260510134901 15 143 4.8 8.0 0.00 0.00 0.00 54 1018.2
20260510134357 15 92 3.2 3.2 0.00 0.00 0.00 55 1018.2
20260510133854 15 151 0.0 3.2 0.00 0.00 0.00 60 1018.1
20260510133350 14 129 1.6 1.6 0.00 0.00 0.00 59 1018.1
20260510132845 13 152 1.6 3.2 0.00 0.00 0.00 58 1018.1
20260510132344 13 144 0.0 0.0 0.00 0.00 0.00 62 1018.1
20260510131840 13 137 0.0 0.0 0.00 0.00 0.00 60 1017.8
20260510131338 13 145 1.6 1.6 0.00 0.00 0.00 59 1017.9
20260510130834 13 160 0.0 0.0 0.00 0.00 0.00 62 1017.8
20260510130331 13 141 1.6 1.6 0.00 0.00 0.00 63 1017.8
20260510125828 13 149 0.0 0.0 0.00 0.00 0.00 64 1017.8
20260510125324 13 130 3.2 3.2 0.00 0.00 0.00 63 1017.9
20260510124821 13 142 0.0 0.0 0.00 0.00 0.00 69 1017.6
20260510124318 13 142 0.0 0.0 0.00 0.00 0.00 69 1017.6
20260510123814 13 57 3.2 3.2 0.00 0.00 0.00 67 1017.7
20260510123310 12 68 3.2 3.2 0.00 0.00 0.00 70 1017.2
20260510122806 12 143 0.0 0.0 0.00 0.00 0.00 72 1017.3
20260510122306 12 141 0.0 0.0 0.00 0.00 0.00 72 1017.0
20260510121758 12 133 1.6 3.2 0.00 0.00 0.00 71 1017.2
20260510121256 13 143 0.0 0.0 0.00 0.00 0.00 71 1017.2
20260510120753 12 138 0.0 1.6 0.00 0.00 0.00 72 1016.9
20260510120250 12 156 0.0 0.0 0.00 0.00 0.00 72 1017.0
20260510115746 12 146 1.6 3.2 0.00 0.00 0.00 73 1016.9
20260510115244 12 139 0.0 0.0 0.00 0.00 0.00 75 1017.0
20260510114738 12 151 0.0 0.0 0.00 0.00 0.00 75 1016.9
20260510114236 12 145 0.0 0.0 0.00 0.00 0.00 76 1016.8
20260510113731 12 147 0.0 0.0 0.00 0.00 0.00 77 1017.0
20260510113229 12 139 0.0 0.0 0.00 0.00 0.00 76 1016.6
20260510112725 12 144 0.0 0.0 0.00 0.00 0.00 76 1016.5
20260510112222 12 156 0.0 0.0 0.00 0.00 0.00 75 1016.4
20260510111717 12 154 0.0 0.0 0.00 0.00 0.00 75 1016.6
20260510111214 12 140 0.0 1.6 0.00 0.00 0.00 76 1016.4
20260510110709 12 157 0.0 1.6 0.00 0.00 0.00 74 1016.3
20260510110207 12 138 0.0 0.0 0.00 0.00 0.00 74 1016.0
20260510105707 12 126 1.6 1.6 0.00 0.00 0.00 74 1015.9
20260510105207 12 145 0.0 0.0 0.00 0.00 0.00 74 1016.0
20260510104704 12 143 0.0 0.0 0.00 0.00 0.00 74 1016.1
20260510104201 12 76 4.8 4.8 0.00 0.00 0.00 73 1015.9
20260510103657 12 146 0.0 1.6 0.00 0.00 0.00 74 1015.9
20260510103154 12 156 1.6 1.6 0.00 0.00 0.00 73 1015.5
20260510102654 12 148 1.6 3.2 0.00 0.00 0.00 73 1015.3
20260510102150 13 142 0.0 1.6 0.00 0.00 0.00 73 1015.1
20260510101648 13 130 1.6 3.2 0.00 0.00 0.00 73 1015.4
20260510101147 13 156 1.6 1.6 0.00 0.00 0.00 74 1015.3
20260510100642 13 182 1.6 1.6 0.00 0.00 0.00 73 1015.1
20260510100140 13 127 3.2 3.2 0.00 0.00 0.00 73 1015.1
20260510095635 13 124 0.0 0.0 0.00 0.00 0.00 73 1014.8
20260510095130 13 151 3.2 3.2 0.00 0.00 0.00 75 1014.6
20260510094629 13 120 0.0 0.0 0.00 0.00 0.00 74 1014.6
20260510094125 13 139 3.2 3.2 0.00 0.00 0.00 73 1014.8
20260510093622 13 139 0.0 1.6 0.00 0.00 0.00 73 1014.8
20260510093119 13 247 4.8 4.8 0.00 0.00 0.00 74 1014.7
20260510092615 14 142 0.0 0.0 0.00 0.00 0.00 75 1014.8
20260510092115 14 155 0.0 1.6 0.00 0.00 0.00 73 1014.6
20260510091612 14 150 0.0 0.0 0.00 0.00 0.00 73 1014.4
20260510091108 14 77 3.2 3.2 0.00 0.00 0.00 74 1014.2
20260510090605 14 137 1.6 1.6 0.00 0.00 0.00 76 1014.1
20260510090101 14 168 1.6 3.2 0.00 0.00 0.00 75 1013.8
20260510085555 15 161 0.0 0.0 0.00 0.00 0.00 75 1013.8
20260510085052 15 112 3.2 3.2 0.00 0.00 0.00 75 1013.7
20260510084549 15 143 4.8 4.8 0.00 0.00 0.00 75 1013.3
20260510084045 15 264 1.6 3.2 0.00 0.00 0.00 76 1013.4
20260510083542 15 139 0.0 0.0 0.00 0.00 0.00 78 1013.1
20260510083038 15 147 0.0 1.6 0.00 0.00 0.00 79 1013.0
20260510082535 15 138 0.0 0.0 0.00 0.00 0.00 80 1012.9
20260510082031 15 119 0.0 0.0 0.00 0.00 0.00 81 1012.8
20260510081526 14 148 0.0 0.0 0.00 0.00 0.00 85 1013.0
20260510081022 14 112 0.0 0.0 0.00 0.00 0.00 85 1012.9
20260510080521 14 127 0.0 0.0 0.00 0.00 0.00 85 1013.0
20260510080018 14 143 0.0 0.0 0.00 0.00 0.00 85 1012.8
20260510075515 14 143 0.0 0.0 0.00 0.00 0.00 85 1012.6
20260510075012 14 143 0.0 0.0 0.00 0.00 0.00 85 1012.6
20260510074510 15 142 0.0 0.0 0.00 0.00 0.00 83 1012.8
20260510074005 15 145 0.0 0.0 0.00 0.00 0.00 83 1012.8
20260510073501 15 130 0.0 1.6 0.00 0.00 0.00 81 1012.7
20260510072958 15 145 0.0 0.0 0.00 0.00 0.00 81 1012.8
20260510072454 15 133 1.6 3.2 0.00 0.00 0.00 81 1012.8
20260510071950 15 142 0.0 0.0 0.00 0.00 0.00 81 1013.0
20260510071447 15 146 0.0 0.0 0.00 0.00 0.00 85 1013.1
20260510070945 15 145 0.0 0.0 0.00 0.00 0.00 82 1012.7
20260510070442 15 147 0.0 0.0 0.00 0.00 0.00 81 1012.6
20260510065937 15 156 0.0 0.0 0.00 0.00 0.00 78 1012.5
20260510065435 15 149 0.0 0.0 0.00 0.00 0.00 83 1012.5
20260510064930 15 145 0.0 0.0 0.00 0.00 0.00 81 1012.7
20260510064428 15 113 0.0 1.6 0.00 0.00 0.00 78 1012.8
20260510063925 15 145 0.0 0.0 0.00 0.00 0.00 79 1012.8
20260510063420 15 148 0.0 0.0 0.00 0.00 0.00 81 1012.9
20260510062919 15 148 0.0 0.0 0.00 0.00 0.00 78 1012.8
20260510062414 16 145 0.0 0.0 0.00 0.00 0.00 77 1012.6
20260510061909 16 154 0.0 0.0 0.00 0.00 0.00 77 1012.3
20260510061406 16 141 0.0 0.0 0.00 0.00 0.00 76 1012.7
20260510060902 16 158 0.0 0.0 0.00 0.00 0.00 79 1012.7
20260510060359 16 140 0.0 0.0 0.00 0.00 0.00 78 1012.6
20260510055855 16 149 0.0 0.0 0.00 0.00 0.00 76 1012.6
20260510055355 17 145 1.6 3.2 0.00 0.00 0.00 76 1012.7
20260510054849 17 148 1.6 3.2 0.00 0.00 0.00 78 1012.9
20260510054345 17 173 1.6 3.2 0.00 0.00 0.00 79 1013.2
20260510053839 17 320 8.0 9.7 0.00 0.00 0.00 77 1012.9
20260510053335 16 177 3.2 8.0 0.00 0.00 0.00 77 1012.9
20260510052832 16 204 3.2 3.2 0.00 0.00 0.00 82 1013.0
20260510052327 16 142 0.0 0.0 0.00 0.00 0.00 84 1013.0
20260510051824 16 149 0.0 0.0 0.00 0.00 0.00 83 1012.5
20260510051321 16 151 0.0 0.0 0.00 0.00 0.00 79 1012.5
20260510050818 16 155 0.0 0.0 0.00 0.00 0.00 77 1012.4
20260510050314 16 146 0.0 0.0 0.00 0.00 0.00 78 1012.5
20260510045811 16 146 0.0 0.0 0.00 0.00 0.00 78 1012.3
20260510045307 16 147 0.0 0.0 0.00 0.00 0.00 78 1012.1
20260510044805 16 150 0.0 0.0 0.00 0.00 0.00 79 1012.2
20260510044302 16 147 0.0 0.0 0.00 0.00 0.00 80 1012.1
20260510043758 16 145 0.0 0.0 0.00 0.00 0.00 81 1012.4
20260510043249 16 145 0.0 0.0 0.00 0.00 0.00 79 1012.2
20260510042746 16 145 0.0 0.0 0.00 0.00 0.00 81 1011.9
20260510042241 15 148 0.0 0.0 0.00 0.00 0.00 82 1012.1
20260510041739 15 144 0.0 0.0 0.00 0.00 0.00 84 1011.9
20260510041236 15 142 0.0 0.0 0.00 0.00 0.00 85 1011.9
20260510040733 16 152 0.0 0.0 0.00 0.00 0.00 85 1012.0
20260510040230 16 149 0.0 0.0 0.00 0.00 0.00 82 1011.8
20260510035725 16 155 0.0 0.0 0.00 0.51 0.51 78 1011.8
20260510035221 16 151 0.0 0.0 0.00 0.51 0.51 78 1011.7
20260510034717 16 162 0.0 0.0 0.00 0.51 0.51 81 1011.6
20260510034216 16 170 0.0 0.0 0.00 0.51 0.51 77 1011.6
20260510033711 16 147 0.0 0.0 0.00 0.51 0.51 76 1011.7
20260510033209 16 157 0.0 0.0 0.00 0.51 0.51 76 1011.8
20260510032705 17 147 0.0 0.0 0.00 0.51 0.51 77 1011.7
20260510032201 16 147 0.0 0.0 0.00 0.51 0.51 78 1011.5
20260510031655 17 149 0.0 0.0 0.00 0.51 0.51 77 1011.4
20260510031152 16 151 0.0 0.0 0.00 0.51 0.51 79 1011.5
20260510030646 16 147 0.0 0.0 0.00 0.51 0.51 81 1011.3
20260510030145 16 146 0.0 0.0 0.00 0.51 0.51 81 1011.3
20260510025641 16 146 0.0 0.0 0.00 0.51 0.51 82 1011.2
20260510025139 16 147 0.0 0.0 0.00 0.51 0.51 80 1011.4
20260510024635 16 148 0.0 0.0 0.00 0.51 0.51 79 1011.7
20260510024132 16 151 1.6 1.6 0.00 0.51 0.51 76 1011.3
20260510023628 16 147 0.0 0.0 0.00 0.51 0.51 80 1011.4
20260510023125 16 146 0.0 0.0 0.00 0.51 0.51 78 1011.4
20260510022625 16 148 0.0 0.0 0.00 0.51 0.51 77 1011.3
20260510022115 16 145 0.0 0.0 0.00 0.51 0.51 77 1011.0
20260510021611 17 145 0.0 0.0 0.00 0.51 0.51 79 1011.2
20260510021108 17 146 0.0 0.0 0.00 0.51 0.51 76 1011.0
20260510020602 17 145 0.0 0.0 0.00 0.51 0.51 77 1011.2
20260510020058 17 148 0.0 0.0 0.00 0.51 0.51 75 1011.1
20260510015554 17 144 0.0 0.0 0.00 0.51 0.51 77 1010.9
20260510015050 17 143 0.0 0.0 0.00 0.51 0.51 75 1011.1
20260510014546 17 144 0.0 0.0 0.00 0.51 0.51 74 1010.9
20260510014044 17 147 0.0 0.0 0.00 0.51 0.51 74 1010.7
20260510013538 17 142 0.0 0.0 0.00 0.51 0.51 73 1010.6
20260510013034 18 143 0.0 0.0 0.00 0.51 0.51 73 1010.4
20260510012528 18 147 0.0 0.0 0.00 0.51 0.51 71 1010.5
20260510012025 17 147 0.0 0.0 0.00 0.51 0.51 72 1010.3
20260510011525 18 147 0.0 0.0 0.00 0.51 0.51 73 1010.4
20260510011020 18 144 0.0 0.0 0.00 0.51 0.51 72 1010.1
20260510010518 18 148 0.0 0.0 0.00 0.51 0.51 68 1010.1
20260510010015 18 147 0.0 0.0 0.00 0.51 0.51 69 1010.1
20260510005510 18 148 0.0 0.0 0.00 0.51 0.51 68 1010.2
20260510005008 18 149 0.0 0.0 0.00 0.51 0.51 67 1010.1
20260510004505 19 148 0.0 0.0 0.00 0.51 0.51 66 1010.2
20260510004003 20 151 0.0 0.0 0.00 0.51 0.51 67 1010.0
20260510003500 19 164 0.0 0.0 0.00 0.51 0.51 64 1009.9
20260510002955 20 152 0.0 0.0 0.00 0.51 0.51 65 1009.9
20260510002451 20 151 0.0 0.0 0.00 0.51 0.51 64 1010.0
20260510001947 20 169 0.0 1.6 0.00 0.51 0.51 62 1009.8
20260510001445 20 151 0.0 1.6 0.00 0.51 0.51 60 1009.7
20260510000943 20 152 1.6 3.2 0.00 0.51 0.51 60 1009.4
20260510000440 20 156 1.6 1.6 0.00 0.51 0.51 60 1009.5
20260509235934 20 163 3.2 4.8 0.00 0.51 0.51 59 1009.3
20260509235426 21 157 0.0 0.0 0.00 0.51 0.51 60 1009.2
20260509234922 21 221 4.8 4.8 0.00 0.51 0.51 58 1009.2
20260509234419 21 154 0.0 1.6 0.00 0.51 0.51 57 1009.2
20260509233917 21 181 0.0 0.0 0.00 0.51 0.51 57 1009.0
20260509233415 21 147 3.2 4.8 0.00 0.51 0.51 55 1009.2
20260509232910 21 129 1.6 1.6 0.00 0.51 0.51 56 1009.2
20260509232408 21 151 1.6 1.6 0.00 0.51 0.51 57 1008.9
20260509231904 21 154 1.6 1.6 0.00 0.51 0.51 57 1009.1
20260509231401 21 173 1.6 3.2 0.00 0.51 0.51 55 1009.3